Date String (YYYY-MM-DD hh:mm:ss) UTC,Instrument flags,absolute air pressure of the measurement (hPa),sample flow rate (lpm),inlet stack bypass flow (lpm),air temperature of the measurement (°C),ambient temperature measured by the external sensor (°C),aerosol sample conditioner tube jacket temperature (°C),OPC LED temperature (°C),internal box temperature (°C),relative humidity of the measurement (%),span deviation,mass concentration of particles derived from Lorenz-Mie calculation of OPC scattering (μg/m³),mass concentration of particles derived from Lorenz-Mie calculation of OPC scattering (μg/m³),mass concentration of particles derived from Lorenz-Mie calculation of OPC scattering (μg/m³)
DateTimeUTC,F1_M11,P_M11,Q1_M11,Q2_M11,T1_M11,T2_M11,T3_M11,T4_M11,T5_M11,U1_M11,ZSPAN_M11,X2_M11,X0_M11,X1_M11
2024-02-20 02:00:00,SystemResetWarning,0828.1,5.01,000.00,024.1,023.5,000.0,032.6,026.0,11.1,0000.0,0001.85,0007.10,0001.34
2024-02-20 02:01:00,SystemResetWarning,0828.1,5.00,000.00,024.1,023.5,000.0,032.6,026.0,11.1,0000.0,0001.85,0006.65,0001.34
2024-02-20 02:02:00,SystemResetWarning,0828.1,5.00,000.00,024.1,023.5,000.0,032.6,026.0,11.1,0000.0,0001.83,0005.99,0001.33
2024-02-20 02:03:00,SystemResetWarning,0828.0,4.99,000.00,024.1,023.5,000.0,032.6,026.0,11.0,0000.0,0001.87,0007.99,0001.33
2024-02-20 02:04:00,SystemResetWarning,0828.0,4.99,000.00,024.1,023.5,000.0,032.6,025.9,11.0,0000.0,0001.86,0008.69,0001.32
2024-02-20 02:05:00,SystemResetWarning,0828.1,5.00,000.00,024.1,023.5,000.0,032.6,025.9,11.0,0000.0,0001.85,0009.18,0001.32
2024-02-20 02:06:00,SystemResetWarning,0828.1,5.00,000.00,024.1,023.5,000.0,032.6,025.9,11.0,0000.0,0001.84,0008.70,0001.30
2024-02-20 02:07:00,SystemResetWarning,0828.1,5.01,000.00,024.1,023.5,000.0,032.6,025.9,10.8,0000.0,0001.82,0008.80,0001.28
2024-02-20 02:08:00,SystemResetWarning,0828.1,5.01,000.00,024.1,023.5,000.0,032.6,025.9,10.4,0000.0,0001.74,0008.80,0001.25
2024-02-20 02:09:00,SystemResetWarning,0828.1,5.00,000.00,024.1,023.5,000.0,032.6,025.9,10.5,0000.0,0001.74,0009.16,0001.24
2024-02-20 02:10:00,SystemResetWarning,0828.0,5.00,000.00,024.1,023.5,000.0,032.6,025.9,10.4,0000.0,0001.79,0009.38,0001.24
2024-02-20 02:11:00,SystemResetWarning,0828.0,5.00,000.00,024.1,023.4,000.0,032.6,025.9,10.5,0000.0,0001.82,0009.54,0001.24
2024-02-20 02:12:00,SystemResetWarning,0828.1,5.00,000.00,024.1,023.4,000.0,032.6,025.9,10.4,0000.0,0001.82,0009.61,0001.24
2024-02-20 02:13:00,SystemResetWarning,0828.1,5.02,000.00,024.0,023.4,000.0,032.6,025.9,10.4,0000.0,0001.82,0009.48,0001.26
2024-02-20 02:14:00,SystemResetWarning,0828.1,5.00,000.00,024.1,023.4,000.0,032.6,025.9,09.9,0000.0,0001.81,0008.15,0001.28
2024-02-20 02:15:00,SystemResetWarning,0828.1,5.00,000.00,024.1,023.5,000.0,032.6,025.9,09.3,0000.0,0001.83,0008.12,0001.30
2024-02-20 02:16:00,SystemResetWarning,0828.1,5.00,000.00,024.1,023.5,000.0,032.6,026.0,09.4,0000.0,0001.86,0008.86,0001.32
2024-02-20 02:17:00,SystemResetWarning,0828.1,5.00,000.00,024.1,023.5,000.0,032.6,026.0,09.8,0000.0,0001.85,0008.63,0001.33
2024-02-20 02:18:00,SystemResetWarning,0828.1,4.99,000.00,024.1,023.5,000.0,032.6,026.0,10.1,0000.0,0001.88,0008.30,0001.34
2024-02-20 02:19:00,SystemResetWarning,0828.1,4.99,000.00,024.1,023.5,000.0,032.6,026.0,10.2,0000.0,0001.94,0008.48,0001.36
2024-02-20 02:20:00,SystemResetWarning,0828.1,5.01,000.00,024.1,023.5,000.0,032.6,026.0,10.2,0000.0,0002.00,0008.26,0001.37
2024-02-20 02:21:00,SystemResetWarning,0828.2,5.01,000.00,024.1,023.5,000.0,032.6,026.0,10.1,0000.0,0002.00,0008.14,0001.38
2024-02-20 02:22:00,SystemResetWarning,0828.1,5.00,000.00,024.1,023.5,000.0,032.6,026.0,10.2,0000.0,0001.97,0008.00,0001.37
2024-02-20 02:23:00,SystemResetWarning,0828.2,5.00,000.00,024.1,023.5,000.0,032.6,026.0,10.3,0000.0,0001.94,0007.87,0001.34
2024-02-20 02:24:00,SystemResetWarning,0828.2,5.00,000.00,024.1,023.5,000.0,032.6,026.0,10.5,0000.0,0001.90,0007.88,0001.29
2024-02-20 02:25:00,SystemResetWarning,0828.2,5.00,000.00,024.1,023.5,000.0,032.6,026.0,10.6,0000.0,0001.86,0007.89,0001.25
2024-02-20 02:26:00,SystemResetWarning,0828.2,5.00,000.00,024.1,023.5,000.0,032.6,026.0,10.7,0000.0,0001.83,0007.67,0001.23
2024-02-20 02:27:00,SystemResetWarning,0828.2,4.99,000.00,024.1,023.5,000.0,032.6,026.0,10.7,0000.0,0001.85,0005.88,0001.23
2024-02-20 02:28:00,SystemResetWarning,0828.2,4.99,000.00,024.1,023.5,000.0,032.6,026.0,10.7,0000.0,0001.85,0004.56,0001.24
2024-02-20 02:29:00,SystemResetWarning,0828.2,5.01,000.00,024.1,023.5,000.0,032.6,026.1,10.7,0000.0,0001.84,0004.63,0001.24
2024-02-20 02:30:00,SystemResetWarning,0828.2,5.01,000.00,024.1,023.5,000.0,032.6,026.1,10.2,0000.0,0001.77,0004.26,0001.23
2024-02-20 02:31:00,SystemResetWarning,0828.2,5.00,000.00,024.1,023.5,000.0,032.6,026.1,09.8,0000.0,0001.74,0003.82,0001.24
2024-02-20 02:32:00,SystemResetWarning,0828.2,5.00,000.00,024.1,023.5,000.0,032.6,026.1,09.9,0000.0,0001.76,0003.98,0001.26
2024-02-20 02:33:00,SystemResetWarning,0828.2,4.99,000.00,024.1,023.5,000.0,032.6,026.0,10.0,0000.0,0001.82,0004.25,0001.30
2024-02-20 02:34:00,SystemResetWarning,0828.3,4.99,000.00,024.1,023.5,000.0,032.6,026.0,10.0,0000.0,0001.86,0004.65,0001.34
2024-02-20 02:35:00,SystemResetWarning,0828.3,5.01,000.00,024.1,023.5,000.0,032.6,026.0,09.8,0000.0,0001.91,0004.74,0001.39
2024-02-20 02:36:00,SystemResetWarning,0828.3,5.01,000.00,024.1,023.5,000.0,032.6,026.0,09.8,0000.0,0001.97,0005.20,0001.44
2024-02-20 02:37:00,SystemResetWarning,0828.3,4.99,000.00,024.1,023.5,000.0,032.6,026.0,09.8,0000.0,0002.02,0005.16,0001.49
2024-02-20 02:38:00,SystemResetWarning,0828.2,4.99,000.00,024.1,023.5,000.0,032.6,026.0,09.8,0000.0,0002.00,0006.00,0001.51
2024-02-20 02:39:00,SystemResetWarning,0828.2,4.99,000.00,024.1,023.5,000.0,032.6,026.0,09.9,0000.0,0002.03,0006.90,0001.49
2024-02-20 02:40:00,SystemResetWarning,0828.1,5.00,000.00,024.1,023.5,000.0,032.6,026.0,09.9,0000.0,0002.03,0006.97,0001.48
2024-02-20 02:41:00,SystemResetWarning,0828.1,5.01,000.00,024.1,023.5,000.0,032.6,026.0,10.1,0000.0,0002.05,0007.43,0001.50
2024-02-20 02:42:00,SystemResetWarning,0828.2,5.01,000.00,024.1,023.5,000.0,032.6,026.0,10.0,0000.0,0002.06,0007.85,0001.50
2024-02-20 02:43:00,SystemResetWarning,0828.2,5.01,000.00,024.1,023.5,000.0,032.6,026.0,10.1,0000.0,0002.02,0007.77,0001.47
2024-02-20 02:44:00,SystemResetWarning,0828.2,5.00,000.00,024.1,023.5,000.0,032.6,026.0,10.1,0000.0,0001.98,0007.64,0001.43
2024-02-20 02:45:00,SystemResetWarning,0828.2,5.00,000.00,024.1,023.5,000.0,032.6,026.0,10.2,0000.0,0001.96,0007.63,0001.40
2024-02-20 02:46:00,SystemResetWarning,0828.2,5.00,000.00,024.1,023.5,000.0,032.6,026.0,10.1,0000.0,0001.99,0008.16,0001.38
2024-02-20 02:47:00,SystemResetWarning,0828.2,5.00,000.00,024.1,023.5,000.0,032.6,026.0,09.9,0000.0,0001.97,0008.21,0001.34
2024-02-20 02:48:00,SystemResetWarning,0828.1,5.00,000.00,024.1,023.5,000.0,032.6,026.0,09.6,0000.0,0001.92,0007.79,0001.30
2024-02-20 02:49:00,SystemResetWarning,0828.1,5.01,000.00,024.1,023.4,000.0,032.6,026.0,09.5,0000.0,0001.90,0007.83,0001.27
2024-02-20 02:50:00,SystemResetWarning,0828.0,4.99,000.00,024.1,023.4,000.0,032.6,026.0,09.7,0000.0,0001.90,0007.88,0001.28
2024-02-20 02:51:00,SystemResetWarning,0828.0,5.00,000.00,024.1,023.4,000.0,032.6,026.0,09.9,0000.0,0001.93,0007.94,0001.30
2024-02-20 02:52:00,SystemResetWarning,0828.1,4.99,000.00,024.1,023.4,000.0,032.6,026.0,10.0,0000.0,0001.99,0008.33,0001.30
2024-02-20 02:53:00,SystemResetWarning,0828.1,5.00,000.00,024.1,023.4,000.0,032.6,026.0,10.1,0000.0,0002.06,0008.57,0001.31
2024-02-20 02:54:00,SystemResetWarning,0828.0,5.00,000.00,024.1,023.4,000.0,032.6,026.0,10.1,0000.0,0002.07,0009.23,0001.32
2024-02-20 02:55:00,SystemResetWarning,0828.0,5.00,000.00,024.1,023.4,000.0,032.6,026.0,10.1,0000.0,0002.09,0009.64,0001.35
2024-02-20 02:56:00,SystemResetWarning,0828.0,5.00,000.00,024.1,023.4,000.0,032.6,026.0,10.0,0000.0,0002.07,0009.56,0001.35
2024-02-20 02:57:00,SystemResetWarning,0828.0,5.00,000.00,024.1,023.4,000.0,032.6,026.0,10.0,0000.0,0002.00,0008.87,0001.34
2024-02-20 02:58:00,SystemResetWarning,0828.0,5.00,000.00,024.1,023.4,000.0,032.6,026.0,09.9,0000.0,0001.94,0008.53,0001.35
2024-02-20 02:59:00,SystemResetWarning,0828.0,5.00,000.00,024.1,023.4,000.0,032.6,026.0,09.7,0000.0,0001.92,0008.80,0001.34
